This is the latest recevied weather packets stored in our database for station/object K1WJY. If no packets are shown the sender has not sent any weather packets the latest 1 day(s).
| Time | Temp. | Humidity | Pressure | Rain* | Wind** | Luminosity | Snow |
|---|---|---|---|---|---|---|---|
| 1777981245 | 11.67° C | 85% | 1011.7 hPa | 0 mm | 1.34 m/s, 238° | 236 W/m² | - |
| 1777980941 | 11.67° C | 85% | 1011.7 hPa | 0 mm | 2.68 m/s, 176° | 73 W/m² | - |
| 1777980638 | 11.11° C | 85% | 1011.6 hPa | 0 mm | 1.79 m/s, 155° | 73 W/m² | - |
| 1777980334 | 11.11° C | 86% | 1011.5 hPa | 0 mm | 1.34 m/s, 203° | 76 W/m² | - |
| 1777980033 | 11.11° C | 86% | 1011.6 hPa | 0 mm | 1.79 m/s, 182° | 73 W/m² | - |
| 1777979726 | 11.11° C | 87% | 1011.6 hPa | 0 mm | 0.45 m/s, 198° | 72 W/m² | - |
| 1777979423 | 10.56° C | 87% | 1011.6 hPa | 0 mm | 1.34 m/s, 199° | 72 W/m² | - |
| 1777979119 | 10.56° C | 87% | 1011.8 hPa | 0 mm | 0.89 m/s, 280° | 146 W/m² | - |
| 1777978816 | 10.56° C | 88% | 1011.7 hPa | 0 mm | 0 m/s | 138 W/m² | - |
| 1777978512 | 10.56° C | 89% | 1011.7 hPa | 0 mm | 0.45 m/s, 228° | 87 W/m² | - |
| 1777978208 | 10° C | 89% | 1011.6 hPa | 0 mm | 2.24 m/s, 193° | 61 W/m² | - |
| 1777977906 | 10° C | 90% | 1011.7 hPa | 0 mm | 0 m/s | 63 W/m² | - |
| 1777977603 | 9.44° C | 90% | 1011.6 hPa | 0 mm | 1.79 m/s, 183° | 56 W/m² | - |
| 1777977300 | 9.44° C | 91% | 1011.7 hPa | 0 mm | 0.89 m/s, 163° | 54 W/m² | - |
| 1777976997 | 8.89° C | 92% | 1011.6 hPa | 0 mm | 1.34 m/s, 176° | 50 W/m² | - |
| 1777976694 | 8.89° C | 93% | 1011.6 hPa | 0 mm | 0 m/s | 46 W/m² | - |
| 1777976391 | 8.89° C | 93% | 1011.7 hPa | 0 mm | 0.89 m/s, 185° | 40 W/m² | - |
| 1777976089 | 8.33° C | 94% | 1011.5 hPa | 0 mm | 0.45 m/s, 331° | 38 W/m² | - |
| 1777975786 | 8.33° C | 94% | 1011.5 hPa | 0 mm | 0 m/s | 35 W/m² | - |
| 1777975483 | 8.33° C | 94% | 1011.5 hPa | 0 mm | 0.45 m/s, 191° | 32 W/m² | - |
| 1777975179 | 8.33° C | 94% | 1011.4 hPa | 0 mm | 0 m/s | 29 W/m² | - |
| 1777974876 | 8.33° C | 94% | 1011.3 hPa | 0 mm | 0 m/s | 24 W/m² | - |
| 1777974572 | 8.33° C | 94% | 1011.5 hPa | 0 mm | 0.45 m/s, 206° | 19 W/m² | - |
| 1777974269 | 8.33° C | 94% | 1011.2 hPa | 0 mm | 0.89 m/s, 231° | 15 W/m² | - |
| 1777973965 | 8.33° C | 94% | 1011.3 hPa | 0 mm | 0.45 m/s, 154° | 12 W/m² | - |
* Rain latest hour (hover to see other rain measurements)
** Current wind speed in m/s (hover to see current wind gust speed)